Location: Burbank
(38.7788°N, 114.0429°W)
Time: 11:32:34
(UTC+00:00)

Altair - All Passes

Search period start: 15 May 2026 00:00
Search period end: 25 May 2026 00:00
Orbit: 1501 x 1682 km, 47.2° (Epoch: 14 May)

Date Brightness Start Highest point End Pass type
(mag) Time Alt. Az. Time Alt. Az. Time Alt. Az.
15 May - 10:41:33 10° SSW 10:50:06 36° SE 10:58:52 10° ENE visible
15 May - 12:44:17 10° WSW 12:54:14 86° NNW 13:04:28 10° ENE daylight
15 May - 14:50:13 10° W 15:00:04 54° N 15:10:01 10° ENE daylight
15 May - 16:56:17 10° WNW 17:06:23 63° NNE 17:16:23 10° E daylight
15 May - 19:01:30 10° WNW 19:11:30 65° SW 19:21:16 10° SE daylight
15 May - 21:08:43 10° W 21:14:52 18° WSW 21:20:55 10° SSW daylight
16 May - 10:16:42 10° S 10:24:57 32° SE 10:33:25 10° ENE visible
16 May - 12:19:02 10° WSW 12:28:57 89° SSE 12:39:10 10° ENE daylight
16 May - 14:24:50 10° W 14:34:40 55° N 14:44:38 10° ENE daylight
16 May - 16:30:57 10° WNW 16:41:01 61° NNE 16:51:02 10° E daylight
16 May - 18:36:11 10° WNW 18:46:16 69° SW 18:56:09 10° SE daylight
16 May - 20:42:59 10° W 20:49:45 21° SW 20:56:25 10° SSW daylight
17 May - 09:51:53 10° S 09:59:48 29° SE 10:07:56 10° ENE visible
17 May - 11:53:48 10° SW 12:03:40 85° SSE 12:13:51 10° ENE visible
17 May - 13:59:28 10° W 14:09:17 56° N 14:19:16 10° ENE daylight
17 May - 16:05:37 10° WNW 16:15:39 60° NNE 16:25:39 10° E daylight
17 May - 18:10:52 10° WNW 18:21:01 74° SW 18:30:58 10° SE daylight
17 May - 20:17:20 10° WNW 20:24:37 23° SW 20:31:49 10° S daylight
18 May - 09:27:08 10° S 09:34:40 26° SE 09:42:24 10° ENE visible
18 May - 11:28:37 10° SW 11:38:24 80° SE 11:48:33 10° ENE visible
18 May - 13:34:05 10° W 13:43:54 57° NNW 13:53:55 10° ENE daylight
18 May - 15:40:17 10° WNW 15:50:16 58° NNE 16:00:15 10° E daylight
18 May - 17:45:33 10° WNW 17:55:45 79° SW 18:05:47 10° SE daylight
18 May - 19:51:44 10° WNW 19:59:30 26° SW 20:07:08 10° S daylight
19 May - 09:02:26 10° S 09:09:33 24° SE 09:16:50 10° ENE visible
19 May - 11:03:26 10° SW 11:13:09 76° SE 11:23:15 10° ENE visible
19 May - 13:08:43 10° W 13:18:31 59° NNW 13:28:33 10° ENE daylight
19 May - 15:14:57 10° WNW 15:24:53 57° N 15:34:51 10° E daylight
19 May - 17:20:15 10° WNW 17:30:29 83° SSW 17:40:33 10° SE daylight
19 May - 19:26:13 10° WNW 19:34:21 29° SW 19:42:22 10° S daylight
20 May - 08:37:50 10° S 08:44:26 21° SE 08:51:12 10° E visible
20 May - 10:38:16 10° SW 10:47:55 71° SE 10:57:56 10° ENE visible
20 May - 12:43:22 10° W 12:53:09 60° NNW 13:03:12 10° ENE daylight
20 May - 14:49:37 10° WNW 14:59:30 56° N 15:09:27 10° E daylight
20 May - 16:54:58 10° WNW 17:05:11 88° SSW 17:15:19 10° SE daylight
20 May - 19:00:43 10° WNW 19:09:12 32° SW 19:17:34 10° S daylight
21 May - 08:13:19 10° SSE 08:19:20 19° ESE 08:25:29 10° E visible
21 May - 10:13:08 10° SW 10:22:41 66° SE 10:32:36 10° ENE visible
21 May - 12:18:00 10° W 12:27:47 62° NNW 12:37:52 10° ENE daylight
21 May - 14:24:16 10° WNW 14:34:06 55° N 14:44:03 10° E daylight
21 May - 16:29:40 10° WNW 16:39:54 88° NNE 16:50:04 10° ESE daylight
21 May - 18:35:16 10° WNW 18:44:02 35° SW 18:52:42 10° S daylight
22 May - 07:48:56 10° SSE 07:54:15 16° ESE 07:59:40 10° E visible
22 May - 09:48:02 10° SW 09:57:27 62° SE 10:07:16 10° ENE visible
22 May - 11:52:40 10° W 12:02:26 64° NNW 12:12:32 10° ENE daylight
22 May - 13:58:55 10° WNW 14:08:43 54° N 14:18:38 10° E daylight
22 May - 16:04:23 10° WNW 16:14:36 84° NNE 16:24:46 10° ESE daylight
22 May - 18:09:51 10° WNW 18:18:52 38° SW 18:27:47 10° SSE daylight
23 May - 07:24:44 10° SSE 07:29:10 14° ESE 07:33:40 10° E visible
23 May - 09:22:57 10° SSW 09:32:15 57° SE 09:41:56 10° ENE visible
23 May - 11:27:20 10° WSW 11:37:06 67° NNW 11:47:12 10° ENE visible
23 May - 13:33:34 10° WNW 13:43:19 53° N 13:53:14 10° E daylight
23 May - 15:39:05 10° WNW 15:49:17 80° NNE 15:59:28 10° ESE daylight
23 May - 17:44:27 10° WNW 17:53:41 41° SW 18:02:50 10° SSE daylight
24 May - 07:00:52 10° SE 07:04:05 12° ESE 07:07:20 10° E visible
24 May - 08:57:54 10° SSW 09:07:04 53° SE 09:16:35 10° ENE visible
24 May - 11:02:02 10° WSW 11:11:46 70° NNW 11:21:52 10° ENE visible
24 May - 13:08:13 10° WNW 13:17:56 53° N 13:27:50 10° ENE daylight
24 May - 15:13:48 10° WNW 15:23:58 77° NNE 15:34:09 10° ESE daylight
24 May - 17:19:05 10° WNW 17:28:30 45° SW 17:37:51 10° SSE daylight
